N822JH KJAX-

Flight info

Callsign N822JH
Flight time N/A
Altitude VFR
Route
Aircraft PA24/L-DOV/C

Departure

Time 2026-05-03 22:10
Airport Jacksonville International Airport (KJAX)

Arrival

Time N/A
Airport -
Time Latitude Longitude Altitude Speed Heading
2026-05-03 22:02 30.49693 -81.67849 32 ft 0 kts 279°
2026-05-03 22:03 30.49665 -81.67861 31 ft 6 kts 203°
2026-05-03 22:04 30.49664 -81.67862 31 ft 0 kts 208°
2026-05-03 22:04 30.49663 -81.67862 31 ft 1 kts 208°
2026-05-03 22:04 30.49667 -81.67901 31 ft 11 kts 314°
2026-05-03 22:05 30.49799 -81.67899 31 ft 24 kts
2026-05-03 22:05 30.49960 -81.67943 31 ft 22 kts 341°
2026-05-03 22:05 30.50041 -81.68022 33 ft 14 kts 258°
2026-05-03 22:05 30.50010 -81.68139 34 ft 19 kts 252°
2026-05-03 22:06 30.49960 -81.68314 31 ft 25 kts 252°
2026-05-03 22:06 30.49936 -81.68398 30 ft 0 kts 251°
2026-05-03 22:06 30.49935 -81.68400 30 ft 0 kts 251°
2026-05-03 22:07 30.49931 -81.68419 30 ft 7 kts 279°
2026-05-03 22:07 30.49938 -81.68437 31 ft 0 kts 320°
2026-05-03 22:08 30.49962 -81.68453 31 ft 12 kts 337°
2026-05-03 22:08 30.50083 -81.68412 35 ft 26 kts 54°
2026-05-03 22:08 30.50210 -81.68083 34 ft 69 kts 70°
2026-05-03 22:08 30.50402 -81.67510 137 ft 83 kts 71°
2026-05-03 22:09 30.50624 -81.66830 265 ft 97 kts 74°
2026-05-03 22:09 30.50597 -81.65971 296 ft 113 kts 101°
2026-05-03 22:09 30.50508 -81.65050 453 ft 114 kts 81°
2026-05-03 22:10 30.51757 -81.65187 733 ft 139 kts 296°
2026-05-03 22:10 30.51847 -81.66303 832 ft 141 kts 261°
2026-05-03 22:10 30.51578 -81.67424 843 ft 149 kts 254°
2026-05-03 22:10 30.51288 -81.68587 826 ft 151 kts 251°
2026-05-03 22:11 30.50966 -81.69715 904 ft 146 kts 251°
2026-05-03 22:11 30.50665 -81.70802 925 ft 135 kts 252°
2026-05-03 22:11 30.50411 -81.71774 910 ft 119 kts 255°
2026-05-03 22:11 30.49916 -81.72455 795 ft 113 kts 200°
2026-05-03 22:12 30.49249 -81.72348 762 ft 91 kts 137°
2026-05-03 22:12 30.49053 -81.71732 638 ft 78 kts 63°
2026-05-03 22:12 30.49233 -81.71149 424 ft 80 kts 68°
2026-05-03 22:12 30.49446 -81.70575 224 ft 73 kts 70°
2026-05-03 22:13 30.49607 -81.70070 71 ft 60 kts 76°
2026-05-03 22:13 30.49707 -81.69707 31 ft 36 kts 69°
2026-05-03 22:13 30.49735 -81.69619 31 ft 0 kts 71°
2026-05-03 22:14 30.49744 -81.69592 31 ft 16 kts 67°
2026-05-03 22:14 30.49851 -81.69284 40 ft 65 kts 67°
2026-05-03 22:14 30.50047 -81.68773 203 ft 75 kts 66°
2026-05-03 22:14 30.50293 -81.68097 296 ft 95 kts 73°
2026-05-03 22:15 30.50483 -81.67340 430 ft 106 kts 79°
2026-05-03 22:15 30.50636 -81.66492 599 ft 107 kts 79°
2026-05-03 22:15 30.50788 -81.65622 700 ft 116 kts 80°
2026-05-03 22:15 30.50900 -81.64715 921 ft 111 kts 81°
2026-05-03 22:16 30.50989 -81.63810 1062 ft 117 kts 81°
2026-05-03 22:16 30.51065 -81.62857 1223 ft 123 kts 84°
2026-05-03 22:16 30.51135 -81.61844 1348 ft 124 kts 84°
2026-05-03 22:16 30.51213 -81.60837 1557 ft 120 kts 85°
2026-05-03 22:17 30.51260 -81.59865 1667 ft 126 kts 86°
2026-05-03 22:17 30.51266 -81.58844 1794 ft 125 kts 87°
2026-05-03 22:17 30.51266 -81.57823 1907 ft 127 kts 88°
2026-05-03 22:17 30.51248 -81.56815 2039 ft 128 kts 88°
2026-05-03 22:18 30.51256 -81.55778 2180 ft 128 kts 88°
2026-05-03 22:18 30.51257 -81.54760 2308 ft 125 kts 88°
2026-05-03 22:18 30.51250 -81.53744 2402 ft 127 kts 89°
2026-05-03 22:18 30.51214 -81.52725 2506 ft 126 kts 92°
2026-05-03 22:19 30.51139 -81.51681 2580 ft 127 kts 94°
2026-05-03 22:19 30.51041 -81.50684 2686 ft 131 kts 95°
2026-05-03 22:19 30.50925 -81.49607 2642 ft 137 kts 96°
2026-05-03 22:19 30.50782 -81.48554 2754 ft 129 kts 96°
2026-05-03 22:20 30.50599 -81.47519 2741 ft 133 kts 105°
2026-05-03 22:20 30.50240 -81.46529 2765 ft 131 kts 110°
2026-05-03 22:20 30.49858 -81.45603 2888 ft 124 kts 115°
2026-05-03 22:20 30.49271 -81.44861 2891 ft 127 kts 139°
2026-05-03 22:21 30.48479 -81.44405 2978 ft 127 kts 152°
2026-05-03 22:21 30.47659 -81.44010 3069 ft 128 kts 152°
2026-05-03 22:21 30.46850 -81.43651 3211 ft 123 kts 155°
2026-05-03 22:21 30.46031 -81.43310 3283 ft 126 kts 156°
2026-05-03 22:22 30.45200 -81.42969 3397 ft 126 kts 157°
2026-05-03 22:22 30.44372 -81.42642 3502 ft 127 kts 157°
2026-05-03 22:22 30.43814 -81.42426 3523 ft 130 kts 157°
2026-05-03 22:22 30.42651 -81.41946 3514 ft 136 kts 155°
2026-05-03 22:23 30.42053 -81.41695 3506 ft 138 kts 155°
2026-05-03 22:23 30.40851 -81.41164 3487 ft 142 kts 156°
2026-05-03 22:23 30.39922 -81.40755 3496 ft 142 kts 156°
2026-05-03 22:23 30.38996 -81.40371 3505 ft 142 kts 157°
2026-05-03 22:24 30.38056 -81.39999 3509 ft 144 kts 158°
2026-05-03 22:24 30.37420 -81.39783 3508 ft 143 kts 163°
2026-05-03 22:24 30.36434 -81.39551 3506 ft 145 kts 166°
2026-05-03 22:24 30.35449 -81.39310 3504 ft 144 kts 165°
2026-05-03 22:25 30.34462 -81.39106 3500 ft 144 kts 170°
2026-05-03 22:25 30.33542 -81.38967 3465 ft 123 kts 170°
2026-05-03 22:25 30.32796 -81.38891 3376 ft 98 kts 170°
2026-05-03 22:25 30.32024 -81.38810 3277 ft 120 kts 169°
2026-05-03 22:26 30.31161 -81.38716 3389 ft 128 kts 171°
2026-05-03 22:26 30.30251 -81.38593 3483 ft 135 kts 170°
2026-05-03 22:26 30.29282 -81.38461 3507 ft 145 kts 170°
2026-05-03 22:26 30.28259 -81.38337 3512 ft 151 kts 169°
2026-05-03 22:27 30.27200 -81.38203 3517 ft 155 kts 170°
2026-05-03 22:27 30.26121 -81.38054 3511 ft 157 kts 169°
2026-05-03 22:27 30.25037 -81.37883 3499 ft 158 kts 170°
2026-05-03 22:27 30.23947 -81.37730 3498 ft 157 kts 171°
2026-05-03 22:28 30.22865 -81.37573 3494 ft 156 kts 170°
2026-05-03 22:28 30.21804 -81.37404 3512 ft 156 kts 169°
2026-05-03 22:28 30.20734 -81.37226 3508 ft 154 kts 169°
2026-05-03 22:28 30.19663 -81.37057 3507 ft 155 kts 169°
2026-05-03 22:29 30.18585 -81.36906 3504 ft 156 kts 169°
2026-05-03 22:29 30.17505 -81.36746 3504 ft 156 kts 170°
2026-05-03 22:29 30.16428 -81.36601 3503 ft 155 kts 170°
2026-05-03 22:29 30.15391 -81.36455 3500 ft 150 kts 167°
2026-05-03 22:30 30.14362 -81.36266 3501 ft 151 kts 167°
2026-05-03 22:30 30.13334 -81.36073 3605 ft 143 kts 168°
2026-05-03 22:30 30.12384 -81.35909 3775 ft 139 kts 168°
2026-05-03 22:30 30.11396 -81.35722 3752 ft 144 kts 167°
2026-05-03 22:31 30.10438 -81.35533 3926 ft 137 kts 168°
2026-05-03 22:31 30.09525 -81.35353 4100 ft 132 kts 169°
2026-05-03 22:31 30.08619 -81.35181 4237 ft 131 kts 169°
2026-05-03 22:31 30.07720 -81.35024 4386 ft 128 kts 170°
2026-05-03 22:32 30.06855 -81.34870 4583 ft 126 kts 171°
2026-05-03 22:32 30.06000 -81.34721 4750 ft 124 kts 171°
2026-05-03 22:32 30.05143 -81.34571 4890 ft 126 kts 172°
2026-05-03 22:32 30.04267 -81.34424 5033 ft 125 kts 173°
2026-05-03 22:33 30.03426 -81.34283 5214 ft 123 kts 173°
2026-05-03 22:33 30.02576 -81.34132 5372 ft 122 kts 174°
2026-05-03 22:33 30.01736 -81.33984 5492 ft 126 kts 175°
2026-05-03 22:33 30.00857 -81.33847 5547 ft 132 kts 175°
2026-05-03 22:34 29.99912 -81.33700 5537 ft 141 kts 175°
2026-05-03 22:34 29.98923 -81.33554 5529 ft 145 kts 176°
2026-05-03 22:34 29.97914 -81.33416 5514 ft 146 kts 175°
2026-05-03 22:34 29.96910 -81.33252 5519 ft 146 kts 174°
2026-05-03 22:35 29.95910 -81.33083 5521 ft 145 kts 174°
2026-05-03 22:35 29.94914 -81.32912 5521 ft 144 kts 172°
2026-05-03 22:35 29.93946 -81.32671 5526 ft 145 kts 167°
2026-05-03 22:35 29.92972 -81.32371 5525 ft 145 kts 166°
2026-05-03 22:36 29.91996 -81.32044 5526 ft 146 kts 166°
2026-05-03 22:36 29.91023 -81.31701 5523 ft 147 kts 166°
2026-05-03 22:36 29.90058 -81.31356 5526 ft 146 kts 166°
2026-05-03 22:36 29.89078 -81.31034 5526 ft 146 kts 166°
2026-05-03 22:37 29.88094 -81.30712 5532 ft 149 kts 166°
2026-05-03 22:37 29.87087 -81.30370 5532 ft 153 kts 166°
2026-05-03 22:37 29.86066 -81.30006 5530 ft 154 kts 166°
2026-05-03 22:37 29.85049 -81.29653 5529 ft 155 kts 166°
2026-05-03 22:38 29.84016 -81.29297 5527 ft 155 kts 166°
2026-05-03 22:38 29.82983 -81.28950 5526 ft 154 kts 166°
2026-05-03 22:38 29.81951 -81.28611 5524 ft 154 kts 165°
2026-05-03 22:38 29.80923 -81.28257 5526 ft 154 kts 166°
2026-05-03 22:39 29.79897 -81.27915 5526 ft 153 kts 166°
2026-05-03 22:39 29.78878 -81.27585 5526 ft 153 kts 166°
2026-05-03 22:39 29.77855 -81.27236 5526 ft 153 kts 166°
2026-05-03 22:39 29.76825 -81.26895 5526 ft 153 kts 166°
2026-05-03 22:40 29.75799 -81.26556 5526 ft 153 kts 166°
2026-05-03 22:40 29.74797 -81.26207 5523 ft 152 kts 165°
2026-05-03 22:40 29.73794 -81.25849 5521 ft 150 kts 166°
2026-05-03 22:40 29.72805 -81.25511 5517 ft 145 kts 165°
2026-05-03 22:41 29.71860 -81.25188 5498 ft 139 kts 166°
2026-05-03 22:41 29.70952 -81.24877 5505 ft 134 kts 166°
2026-05-03 22:41 29.70074 -81.24576 5513 ft 130 kts 167°
2026-05-03 22:41 29.69213 -81.24282 5523 ft 128 kts 167°
2026-05-03 22:42 29.68367 -81.23998 5525 ft 126 kts 168°
2026-05-03 22:42 29.67526 -81.23724 5525 ft 125 kts 168°
2026-05-03 22:42 29.66689 -81.23452 5526 ft 124 kts 168°
2026-05-03 22:42 29.65860 -81.23193 5525 ft 124 kts 167°
2026-05-03 22:43 29.65075 -81.22943 5521 ft 124 kts 167°
2026-05-03 22:43 29.64268 -81.22680 5512 ft 118 kts 167°
2026-05-03 22:43 29.63526 -81.22437 5506 ft 115 kts 166°
2026-05-03 22:43 29.62699 -81.22144 5466 ft 124 kts 166°
2026-05-03 22:44 29.61937 -81.21859 5914 ft 114 kts 165°
2026-05-03 22:44 29.61158 -81.21542 6045 ft 129 kts 166°
2026-05-03 22:44 29.60334 -81.21244 6376 ft 122 kts 168°
2026-05-03 22:44 29.59551 -81.20966 6659 ft 118 kts 169°
2026-05-03 22:45 29.58694 -81.20695 6574 ft 145 kts 171°
2026-05-03 22:45 29.57687 -81.20416 6545 ft 156 kts 171°
2026-05-03 22:45 29.56615 -81.20114 6533 ft 160 kts 169°
2026-05-03 22:45 29.55532 -81.19778 6525 ft 162 kts 168°
2026-05-03 22:46 29.54419 -81.19475 6495 ft 165 kts 177°
2026-05-03 22:46 29.53289 -81.19515 6500 ft 162 kts 194°
2026-05-03 22:46 29.52231 -81.19899 6491 ft 158 kts 207°
2026-05-03 22:46 29.51220 -81.20368 6504 ft 156 kts 209°
2026-05-03 22:47 29.50273 -81.20982 6505 ft 157 kts 221°
2026-05-03 22:47 29.49529 -81.21866 6510 ft 152 kts 237°
2026-05-03 22:47 29.49034 -81.22935 6500 ft 151 kts 253°
2026-05-03 22:47 29.48778 -81.24082 6498 ft 147 kts 258°
2026-05-03 22:48 29.48559 -81.25221 6500 ft 145 kts 259°
2026-05-03 22:48 29.48354 -81.26342 6502 ft 143 kts 260°
2026-05-03 22:48 29.48155 -81.27453 6502 ft 140 kts 260°
2026-05-03 22:48 29.47962 -81.28540 6503 ft 138 kts 261°
2026-05-03 22:49 29.47770 -81.29617 6503 ft 140 kts 261°
2026-05-03 22:49 29.47582 -81.30710 6503 ft 141 kts 260°
2026-05-03 22:49 29.47384 -81.31824 6504 ft 140 kts 260°
2026-05-03 22:49 29.47191 -81.32907 6505 ft 140 kts 260°
2026-05-03 22:50 29.46982 -81.33992 6506 ft 140 kts 260°
2026-05-03 22:50 29.46771 -81.35079 6507 ft 140 kts 259°
2026-05-03 22:50 29.46556 -81.36173 6507 ft 142 kts 259°
2026-05-03 22:50 29.46345 -81.37289 6508 ft 144 kts 260°
2026-05-03 22:51 29.46136 -81.38404 6508 ft 142 kts 260°
2026-05-03 22:51 29.45921 -81.39519 6508 ft 145 kts 259°
2026-05-03 22:51 29.45709 -81.40657 6508 ft 146 kts 259°
2026-05-03 22:51 29.45489 -81.41779 6509 ft 144 kts 259°
2026-05-03 22:52 29.45273 -81.42926 6515 ft 143 kts 260°
2026-05-03 22:52 29.45076 -81.44009 6515 ft 146 kts 259°
2026-05-03 22:52 29.44858 -81.45146 6515 ft 146 kts 259°
2026-05-03 22:52 29.44645 -81.46271 6515 ft 144 kts 259°
2026-05-03 22:53 29.44435 -81.47407 6515 ft 146 kts 259°
2026-05-03 22:53 29.44224 -81.48548 6516 ft 146 kts 259°
2026-05-03 22:53 29.44002 -81.49679 6509 ft 143 kts 258°
2026-05-03 22:53 29.43778 -81.50775 6511 ft 139 kts 259°
2026-05-03 22:54 29.43568 -81.51848 6503 ft 139 kts 259°
2026-05-03 22:54 29.43362 -81.52923 6512 ft 138 kts 259°
2026-05-03 22:54 29.43158 -81.53990 6511 ft 135 kts 259°
2026-05-03 22:54 29.42957 -81.55043 6512 ft 135 kts 259°
2026-05-03 22:55 29.42757 -81.56085 6512 ft 134 kts 259°
2026-05-03 22:55 29.42560 -81.57117 6512 ft 131 kts 260°
2026-05-03 22:55 29.42366 -81.58126 6512 ft 132 kts 260°
2026-05-03 22:55 29.42172 -81.59156 6512 ft 132 kts 260°
2026-05-03 22:56 29.41983 -81.60185 6512 ft 132 kts 260°
2026-05-03 22:56 29.41794 -81.61232 6512 ft 135 kts 260°
2026-05-03 22:56 29.41600 -81.62275 6512 ft 134 kts 260°
2026-05-03 22:56 29.41404 -81.63331 6512 ft 135 kts 259°
2026-05-03 22:57 29.41198 -81.64383 6513 ft 134 kts 259°
2026-05-03 22:57 29.40990 -81.65414 6512 ft 133 kts 259°
2026-05-03 22:57 29.40794 -81.66464 6511 ft 136 kts 259°
2026-05-03 22:57 29.40595 -81.67539 6512 ft 140 kts 258°
2026-05-03 22:58 29.40389 -81.68635 6510 ft 141 kts 258°
2026-05-03 22:58 29.40183 -81.69713 6508 ft 140 kts 258°
2026-05-03 22:58 29.39972 -81.70797 6511 ft 139 kts 258°
2026-05-03 22:58 29.39759 -81.71882 6511 ft 139 kts 258°
2026-05-03 22:59 29.39542 -81.72972 6511 ft 141 kts 257°
2026-05-03 22:59 29.39328 -81.74040 6510 ft 136 kts 258°
2026-05-03 22:59 29.39123 -81.75100 6496 ft 135 kts 258°
2026-05-03 22:59 29.38915 -81.76172 6511 ft 139 kts 258°
2026-05-03 23:00 29.38704 -81.77257 6513 ft 139 kts 258°
2026-05-03 23:00 29.38497 -81.78323 6513 ft 136 kts 258°
2026-05-03 23:00 29.38293 -81.79378 6514 ft 140 kts 258°
2026-05-03 23:00 29.38085 -81.80478 6514 ft 140 kts 258°
2026-05-03 23:01 29.37873 -81.81563 6508 ft 140 kts 258°
2026-05-03 23:01 29.37661 -81.82650 6507 ft 140 kts 258°
2026-05-03 23:01 29.37454 -81.83741 6505 ft 141 kts 259°
2026-05-03 23:01 29.37248 -81.84859 6506 ft 144 kts 259°
2026-05-03 23:02 29.37047 -81.85988 6507 ft 146 kts 258°
2026-05-03 23:02 29.36829 -81.87107 6506 ft 144 kts 257°
2026-05-03 23:02 29.36603 -81.88216 6503 ft 144 kts 257°
2026-05-03 23:02 29.36372 -81.89338 6496 ft 144 kts 257°
2026-05-03 23:03 29.36153 -81.90465 6497 ft 146 kts 258°
2026-05-03 23:03 29.35935 -81.91606 6502 ft 146 kts 258°
2026-05-03 23:03 29.35726 -81.92729 6501 ft 146 kts 258°
2026-05-03 23:03 29.35507 -81.93860 6495 ft 143 kts 258°
2026-05-03 23:04 29.35284 -81.94966 6498 ft 144 kts 257°
2026-05-03 23:04 29.35061 -81.96068 6485 ft 140 kts 258°
2026-05-03 23:04 29.34846 -81.97162 6484 ft 141 kts 258°
2026-05-03 23:04 29.34640 -81.98280 6494 ft 143 kts 258°
2026-05-03 23:05 29.34435 -81.99396 6492 ft 143 kts 259°
2026-05-03 23:05 29.34225 -82.00492 6490 ft 140 kts 258°
2026-05-03 23:05 29.34009 -82.01572 6490 ft 139 kts 258°
2026-05-03 23:05 29.33787 -82.02644 6490 ft 140 kts 258°
2026-05-03 23:06 29.33569 -82.03748 6490 ft 142 kts 258°
2026-05-03 23:06 29.33358 -82.04840 6489 ft 141 kts 258°
2026-05-03 23:06 29.33146 -82.05936 6487 ft 143 kts 258°
2026-05-03 23:06 29.32933 -82.07062 6488 ft 144 kts 258°
2026-05-03 23:07 29.32720 -82.08184 6487 ft 142 kts 257°
2026-05-03 23:07 29.32499 -82.09285 6476 ft 142 kts 258°
2026-05-03 23:07 29.32287 -82.10393 6486 ft 144 kts 258°
2026-05-03 23:07 29.32064 -82.11512 6484 ft 142 kts 258°
2026-05-03 23:08 29.31846 -82.12626 6483 ft 144 kts 258°
2026-05-03 23:08 29.31629 -82.13752 6483 ft 144 kts 258°
2026-05-03 23:08 29.31408 -82.14872 6482 ft 145 kts 258°
2026-05-03 23:08 29.31184 -82.15982 6481 ft 143 kts 257°
2026-05-03 23:09 29.30957 -82.17080 6481 ft 142 kts 258°
2026-05-03 23:09 29.30756 -82.18174 6477 ft 141 kts 259°
2026-05-03 23:09 29.30550 -82.19283 6479 ft 144 kts 258°
2026-05-03 23:09 29.30336 -82.20406 6479 ft 142 kts 258°
2026-05-03 23:10 29.30123 -82.21523 6481 ft 147 kts 258°
2026-05-03 23:10 29.29897 -82.22649 6481 ft 145 kts 257°
2026-05-03 23:10 29.29659 -82.23773 6483 ft 144 kts 257°
2026-05-03 23:10 29.29426 -82.24899 6480 ft 145 kts 257°
2026-05-03 23:11 29.29192 -82.26044 6480 ft 148 kts 257°
2026-05-03 23:11 29.28969 -82.27178 6478 ft 147 kts 258°
2026-05-03 23:11 29.28743 -82.28334 6478 ft 148 kts 258°
2026-05-03 23:11 29.28528 -82.29483 6477 ft 145 kts 258°
2026-05-03 23:12 29.28318 -82.30619 6478 ft 145 kts 257°
2026-05-03 23:12 29.28088 -82.31760 6478 ft 150 kts 257°
2026-05-03 23:12 29.27859 -82.32950 6479 ft 150 kts 258°
2026-05-03 23:12 29.27644 -82.34099 6479 ft 149 kts 258°
2026-05-03 23:13 29.27418 -82.35236 6480 ft 148 kts 257°
2026-05-03 23:13 29.27191 -82.36380 6481 ft 151 kts 257°
2026-05-03 23:13 29.26961 -82.37539 6481 ft 147 kts 258°
2026-05-03 23:13 29.26736 -82.38681 6482 ft 147 kts 257°
2026-05-03 23:14 29.26487 -82.39834 6481 ft 151 kts 256°
2026-05-03 23:14 29.26237 -82.41016 6476 ft 152 kts 257°
2026-05-03 23:14 29.26000 -82.42199 6478 ft 152 kts 258°
2026-05-03 23:14 29.25774 -82.43386 6479 ft 151 kts 258°
2026-05-03 23:15 29.25550 -82.44507 6474 ft 145 kts 259°
2026-05-03 23:15 29.25338 -82.45621 6472 ft 140 kts 258°
2026-05-03 23:15 29.25126 -82.46732 6481 ft 147 kts 258°
2026-05-03 23:15 29.24910 -82.47874 6485 ft 150 kts 258°
2026-05-03 23:16 29.24679 -82.49040 6484 ft 151 kts 258°
2026-05-03 23:16 29.24445 -82.50213 6486 ft 152 kts 258°
2026-05-03 23:16 29.24214 -82.51394 6485 ft 152 kts 258°
2026-05-03 23:16 29.23980 -82.52589 6484 ft 155 kts 258°
2026-05-03 23:17 29.23738 -82.53792 6486 ft 155 kts 257°
2026-05-03 23:17 29.23497 -82.54995 6486 ft 155 kts 258°
2026-05-03 23:17 29.23258 -82.56187 6478 ft 153 kts 258°
2026-05-03 23:17 29.23014 -82.57374 6483 ft 153 kts 257°
2026-05-03 23:18 29.22773 -82.58559 6484 ft 153 kts 258°
2026-05-03 23:18 29.22534 -82.59746 6466 ft 152 kts 257°
2026-05-03 23:18 29.22294 -82.60909 6472 ft 148 kts 258°
2026-05-03 23:18 29.22066 -82.62033 6474 ft 146 kts 258°
2026-05-03 23:19 29.21845 -82.63169 6476 ft 147 kts 258°
2026-05-03 23:19 29.21624 -82.64303 6478 ft 145 kts 258°
2026-05-03 23:19 29.21402 -82.65434 6479 ft 145 kts 258°
2026-05-03 23:19 29.21178 -82.66560 6479 ft 146 kts 258°
2026-05-03 23:20 29.20958 -82.67698 6478 ft 146 kts 258°
2026-05-03 23:20 29.20736 -82.68821 6481 ft 144 kts 258°
2026-05-03 23:20 29.20509 -82.69938 6479 ft 144 kts 258°
2026-05-03 23:20 29.20280 -82.71066 6474 ft 146 kts 258°
2026-05-03 23:21 29.20055 -82.72201 6479 ft 146 kts 258°
2026-05-03 23:21 29.19834 -82.73335 6477 ft 147 kts 258°
2026-05-03 23:21 29.19607 -82.74475 6477 ft 147 kts 257°
2026-05-03 23:21 29.19380 -82.75597 6477 ft 147 kts 257°
2026-05-03 23:22 29.18915 -82.77847 6477 ft 145 kts 257°
2026-05-03 23:22 29.18673 -82.78976 6476 ft 147 kts 258°
2026-05-03 23:22 29.18440 -82.80116 6476 ft 146 kts 258°
2026-05-03 23:23 29.18210 -82.81252 6474 ft 146 kts 258°
2026-05-03 23:23 29.17980 -82.82382 6474 ft 145 kts 259°
2026-05-03 23:23 29.17755 -82.83509 6474 ft 145 kts 259°
2026-05-03 23:23 29.17537 -82.84619 6474 ft 145 kts 259°
2026-05-03 23:24 29.17320 -82.85753 6477 ft 147 kts 259°
2026-05-03 23:24 29.17102 -82.86892 6477 ft 147 kts 259°
2026-05-03 23:24 29.16885 -82.88033 6477 ft 147 kts 259°
2026-05-03 23:24 29.16653 -82.89173 6477 ft 147 kts 258°
2026-05-03 23:25 29.16418 -82.90307 6477 ft 146 kts 258°
2026-05-03 23:25 29.16189 -82.91443 6477 ft 147 kts 258°
2026-05-03 23:25 29.15961 -82.92584 6477 ft 147 kts 258°
2026-05-03 23:25 29.15728 -82.93722 6477 ft 147 kts 258°
2026-05-03 23:26 29.15490 -82.94857 6474 ft 147 kts 258°
2026-05-03 23:26 29.15257 -82.95982 6474 ft 148 kts 258°
2026-05-03 23:26 29.15021 -82.97120 6475 ft 147 kts 258°
2026-05-03 23:26 29.14785 -82.98258 6474 ft 147 kts 258°
2026-05-03 23:27 29.14562 -82.99402 6477 ft 147 kts 258°
2026-05-03 23:27 29.14338 -83.00545 6478 ft 147 kts 258°
2026-05-03 23:27 29.14110 -83.01686 6477 ft 147 kts 258°
2026-05-03 23:27 29.13878 -83.02824 6477 ft 147 kts 258°
2026-05-03 23:28 29.13368 -83.03852 6229 ft 163 kts 223°
2026-05-03 23:28 29.12282 -83.04318 5961 ft 171 kts 179°
2026-05-03 23:28 29.11237 -83.03827 5937 ft 164 kts 139°
2026-05-03 23:28 29.10648 -83.02673 5461 ft 172 kts 98°
2026-05-03 23:29 29.10869 -83.01450 5259 ft 157 kts 57°
2026-05-03 23:29 29.11733 -83.00685 4740 ft 162 kts 21°
2026-05-03 23:29 29.12748 -83.00306 4606 ft 147 kts 15°
2026-05-03 23:29 29.13834 -83.00373 3832 ft 170 kts 348°
2026-05-03 23:30 29.14833 -83.00979 3539 ft 161 kts 316°
2026-05-03 23:30 29.15255 -83.02164 3015 ft 170 kts 275°
2026-05-03 23:30 29.14908 -83.03459 2513 ft 174 kts 234°
2026-05-03 23:30 29.13919 -83.04197 2140 ft 171 kts 193°
2026-05-03 23:31 29.12770 -83.04053 1705 ft 168 kts 153°
2026-05-03 23:31 29.11973 -83.03130 1332 ft 163 kts 112°
2026-05-03 23:31 29.11826 -83.01954 1350 ft 134 kts 82°
2026-05-03 23:31 29.12166 -83.01016 1207 ft 132 kts 46°
2026-05-03 23:32 29.12986 -83.00534 1125 ft 134 kts
2026-05-03 23:32 29.13893 -83.00731 1073 ft 139 kts 334°
2026-05-03 23:32 29.14581 -83.01501 977 ft 140 kts 304°
2026-05-03 23:32 29.14825 -83.02580 832 ft 145 kts 273°
2026-05-03 23:33 29.14534 -83.03688 734 ft 145 kts 238°
2026-05-03 23:33 29.13824 -83.04551 616 ft 147 kts 226°
2026-05-03 23:33 29.13089 -83.05344 473 ft 142 kts 216°
2026-05-03 23:33 29.12253 -83.05183 471 ft 126 kts 125°
2026-05-03 23:34 29.12210 -83.04288 523 ft 113 kts 63°
2026-05-03 23:34 29.12640 -83.03600 545 ft 107 kts 50°
2026-05-03 23:34 29.13088 -83.02942 548 ft 103 kts 48°
2026-05-03 23:34 29.13623 -83.02526 641 ft 87 kts 351°
2026-05-03 23:35 29.14085 -83.03016 449 ft 96 kts 309°
2026-05-03 23:35 29.14353 -83.03651 299 ft 82 kts 267°
2026-05-03 23:35 29.14059 -83.04173 140 ft 81 kts 237°
2026-05-03 23:35 29.13704 -83.04671 132 ft 83 kts 227°
2026-05-03 23:36 29.13252 -83.05201 309 ft 104 kts 226°
2026-05-03 23:36 29.12653 -83.05791 547 ft 113 kts 220°
2026-05-03 23:36 29.11930 -83.06066 677 ft 123 kts 167°
2026-05-03 23:36 29.11372 -83.05406 832 ft 117 kts 100°
2026-05-03 23:37 29.11612 -83.04573 993 ft 115 kts 49°
2026-05-03 23:37 29.12108 -83.03883 1094 ft 108 kts 49°
2026-05-03 23:37 29.12577 -83.03218 1052 ft 106 kts 50°
2026-05-03 23:37 29.13083 -83.02712 964 ft 93 kts 17°
2026-05-03 23:38 29.13700 -83.02819 787 ft 91 kts 328°
2026-05-03 23:38 29.14001 -83.03149 675 ft 91 kts 317°
2026-05-03 23:38 29.14277 -83.03748 457 ft 83 kts 266°
2026-05-03 23:38 29.13952 -83.04334 201 ft 86 kts 237°
2026-05-03 23:39 29.13589 -83.04839 30 ft 76 kts 232°
2026-05-03 23:39 29.13324 -83.05182 16 ft 25 kts 228°
2026-05-03 23:39 29.13261 -83.05264 15 ft 9 kts 229°
2026-05-03 23:39 29.13220 -83.05305 14 ft 14 kts 205°
2026-05-03 23:40 29.13220 -83.05265 17 ft 3 kts 53°
2026-05-03 23:40 29.13237 -83.05241 17 ft 0 kts 51°
2026-05-03 23:42 29.13241 -83.05234 17 ft 3 kts 78°
2026-05-03 23:42 29.13219 -83.05241 17 ft 9 kts 231°
2026-05-03 23:43 29.13264 -83.05243 15 ft 17 kts 43°
2026-05-03 23:43 29.13402 -83.05090 13 ft 36 kts 48°
2026-05-03 23:43 29.13546 -83.04907 12 ft 23 kts 49°
2026-05-03 23:43 29.13588 -83.04850 9 ft 1 kts 316°
2026-05-03 23:44 29.13581 -83.04868 10 ft 6 kts 229°
2026-05-03 23:44 29.13465 -83.05004 14 ft 57 kts 226°
2026-05-03 23:44 29.13113 -83.05427 211 ft 75 kts 226°
2026-05-03 23:44 29.12613 -83.05375 395 ft 94 kts 119°
2026-05-03 23:45 29.12684 -83.04651 606 ft 97 kts 67°
2026-05-03 23:45 29.12928 -83.03912 852 ft 99 kts 64°
2026-05-03 23:45 29.13209 -83.03184 1036 ft 101 kts 62°
2026-05-03 23:45 29.13691 -83.02605 1133 ft 105 kts 19°
2026-05-03 23:46 29.14425 -83.02689 979 ft 114 kts 332°
2026-05-03 23:46 29.14780 -83.03463 770 ft 122 kts 263°
2026-05-03 23:46 29.14222 -83.04152 406 ft 115 kts 219°
2026-05-03 23:46 29.13605 -83.04826 221 ft 130 kts 229°
2026-05-03 23:47 29.13056 -83.05608 456 ft 123 kts 236°
2026-05-03 23:47 29.12401 -83.06242 523 ft 133 kts 197°
2026-05-03 23:47 29.11518 -83.06072 586 ft 127 kts 148°
2026-05-03 23:47 29.10986 -83.05326 677 ft 120 kts 107°
2026-05-03 23:48 29.11039 -83.04411 740 ft 118 kts 61°
2026-05-03 23:48 29.11543 -83.03687 836 ft 113 kts 44°
2026-05-03 23:48 29.12089 -83.03063 788 ft 110 kts 42°
2026-05-03 23:48 29.12716 -83.02571 551 ft 114 kts 14°
2026-05-03 23:49 29.13430 -83.02716 364 ft 96 kts 328°
2026-05-03 23:49 29.13923 -83.03158 315 ft 87 kts 324°
2026-05-03 23:49 29.14297 -83.03633 263 ft 79 kts 288°
2026-05-03 23:49 29.14062 -83.04210 151 ft 91 kts 232°
2026-05-03 23:50 29.13660 -83.04737 37 ft 82 kts 234°
2026-05-03 23:50 29.13352 -83.05144 15 ft 47 kts 225°
2026-05-03 23:50 29.13237 -83.05294 15 ft 9 kts 227°
2026-05-03 23:50 29.13200 -83.05297 14 ft 10 kts 101°
2026-05-03 23:51 29.13227 -83.05264 16 ft 6 kts 34°
2026-05-03 23:51 29.13236 -83.05247 14 ft 0 kts 130°
2026-05-03 23:55 29.13236 -83.05246 15 ft 1 kts 129°
2026-05-03 23:55 29.13219 -83.05223 14 ft 4 kts 129°
2026-05-03 23:55 29.13216 -83.05211 14 ft 0 kts 47°
2026-05-03 23:56 29.13230 -83.05219 17 ft 8 kts 272°
2026-05-03 23:56 29.13225 -83.05240 18 ft 0 kts 253°
2026-05-03 23:56 29.13196 -83.05312 13 ft 21 kts 274°
2026-05-03 23:57 29.13224 -83.05310 14 ft 0 kts 351°
2026-05-03 23:57 29.13338 -83.05174 16 ft 61 kts 47°
2026-05-03 23:57 29.13683 -83.04732 146 ft 87 kts 51°
2026-05-03 23:57 29.14153 -83.04278 374 ft 97 kts
2026-05-03 23:58 29.14829 -83.04518 568 ft 111 kts 332°
2026-05-03 23:58 29.15408 -83.05133 627 ft 123 kts 293°
2026-05-03 23:58 29.15230 -83.06067 738 ft 130 kts 234°
2026-05-03 23:58 29.14626 -83.06829 898 ft 123 kts 229°
2026-05-03 23:59 29.14091 -83.07476 927 ft 104 kts 226°
2026-05-03 23:59 29.13479 -83.07873 883 ft 106 kts 186°
2026-05-03 23:59 29.12786 -83.07698 808 ft 100 kts 151°
2026-05-03 23:59 29.12227 -83.07235 716 ft 99 kts 134°
2026-05-04 00:00 29.11987 -83.06582 651 ft 94 kts 56°
2026-05-04 00:00 29.12519 -83.06135 286 ft 91 kts 36°
2026-05-04 00:00 29.12936 -83.05677 115 ft 79 kts 44°
2026-05-04 00:00 29.13254 -83.05269 17 ft 56 kts 45°
2026-05-04 00:01 29.13521 -83.04951 33 ft 72 kts 39°
2026-05-04 00:01 29.13911 -83.04485 236 ft 85 kts 43°
2026-05-04 00:01 29.14473 -83.04284 431 ft 97 kts 340°
2026-05-04 00:01 29.15040 -83.04839 544 ft 119 kts 301°
2026-05-04 00:02 29.15049 -83.05794 608 ft 124 kts 249°
2026-05-04 00:02 29.14492 -83.06565 627 ft 125 kts 228°
2026-05-04 00:02 29.13914 -83.07259 618 ft 112 kts 226°
2026-05-04 00:02 29.13190 -83.07418 506 ft 109 kts 163°
2026-05-04 00:03 29.12611 -83.06958 436 ft 98 kts 135°
2026-05-04 00:03 29.12431 -83.06256 293 ft 94 kts 75°
2026-05-04 00:03 29.12827 -83.05767 163 ft 76 kts 38°
2026-05-04 00:03 29.13172 -83.05375 48 ft 64 kts 45°
2026-05-04 00:04 29.13397 -83.05078 12 ft 26 kts 44°
2026-05-04 00:04 29.13415 -83.05078 13 ft 17 kts 223°
2026-05-04 00:04 29.13272 -83.05252 15 ft 16 kts 227°
2026-05-04 00:04 29.13210 -83.05307 14 ft 11 kts 162°
2026-05-04 00:05 29.13219 -83.05244 14 ft 9 kts 55°
2026-05-04 00:05 29.13243 -83.05225 15 ft 3 kts 324°
2026-05-04 00:05 29.13244 -83.05235 15 ft 0 kts 226°